Total_Precipitation_Accumulation
0.14 0.08 0.11 0.06 0.02 0.00 0.00 0.01 0.01 0.01 0.02 0.02 0.02 0.01 0.04 0.22 0.65 0.29 0.09 0.01 0.00 0.05 0.15 0.07 0.08 0.12 0.09 0.03 0.01 0.00 0.00 0.01 0.01 0.01 0.01 0.02 0.01 0.01 0.01 0.00 0.00 0.00 0.00 0.00 0.00 0.00 0.00 0.00 0.08 0.06 0.09 0.12 0.05 0.04 0.04 0.03 0.02 0.00 0.15 0.00 0.12 0.01 0.02 0.03 0.02 0.14 0.09 0.01 0.00 0.02 0.00 0.00 0.04 0.03 0.01 0.08 0.18 0.15 0.27 0.36 0.44 0.24 0.24 0.15 0.19 0.22 0.36
0.08 0.16 0.07 0.03 0.03 0.00 0.00 0.01 0.02 0.02 0.05 0.16 0.08 0.02 0.04 0.37 0.89 0.43 0.20 0.00 0.02 0.12 0.24 0.20 0.09 0.08 0.11 0.03 0.02 0.01 0.03 0.01 0.01 0.00 0.01 0.01 0.03 0.02 0.01 0.00 0.00 0.01 0.00 0.00 0.00 0.02 0.01 0.04 0.01 0.05 0.03 0.17 0.01 0.00 0.01 0.02 0.09 0.09 0.31 0.17 0.26 0.50 0.39 0.07 0.25 0.10 0.07 0.10 0.06 0.00 0.02 0.03 0.09 0.07 0.08 0.06 0.04 0.10 0.13 0.10 0.13 0.23 0.15 0.27 0.28 0.36 0.35
0.08 0.10 0.13 0.10 0.02 0.00 0.01 0.01 0.02 0.01 0.04 0.09 0.16 0.06 0.09 0.63 0.68 0.45 0.23 0.16 0.15 0.35 0.15 0.17 0.06 0.22 0.07 0.09 0.10 0.06 0.00 0.01 0.02 0.03 0.11 0.02 0.01 0.01 0.01 0.00 0.02 0.00 0.00 0.00 0.00 0.00 0.02 0.03 0.02 0.01 0.03 0.29 0.01 0.01 0.01 0.01 0.17 0.05 0.05 0.02 0.13 0.15 0.25 0.16 0.24 0.32 0.16 0.29 0.23 0.17 0.17 0.09 0.04 0.01 0.02 0.02 0.02 0.15 0.10 0.12 0.12 0.19 0.11 0.10 0.45 0.62 0.23
0.11 0.11 0.06 0.07 0.04 0.00 0.01 0.01 0.01 0.01 0.03 0.05 0.07 0.09 0.10 0.85 0.78 0.39 0.79 0.90 0.17 0.06 0.04 0.09 0.13 0.10 0.12 0.06 0.11 0.04 0.14 0.01 0.00 0.01 0.03 0.01 0.02 0.00 0.00 0.03 0.00 0.00 0.00 0.00 0.01 0.00 0.01 0.02 0.02 0.01 0.13 0.14 0.05 0.01 0.05 0.00 0.02 0.03 0.03 0.06 0.05 0.33 0.10 0.25 0.27 0.31 0.46 0.25 0.32 0.18 0.05 0.08 0.18 0.09 0.05 0.06 0.04 0.20 0.31 0.28 0.27 0.26 0.13 0.25 0.40 0.32 0.40
0.15 0.12 0.08 0.10 0.01 0.00 0.01 0.01 0.01 0.01 0.02 0.05 0.09 0.03 0.13 0.36 0.54 0.19 0.27 0.30 0.70 0.37 0.25 0.18 0.11 0.38 0.25 0.09 0.09 0.20 0.02 0.10 0.04 0.00 0.12 0.01 0.01 0.00 0.06 0.08 0.02 0.02 0.00 0.04 0.02 0.06 0.04 0.02 0.01 0.02 0.03 0.24 0.27 0.02 0.01 0.02 0.00 0.00 0.02 0.02 0.09 0.16 0.14 0.15 0.18 0.23 0.18 0.16 0.21 0.11 0.02 0.30 0.19 0.15 0.09 0.09 0.04 0.09 0.17 0.13 0.43 0.19 0.24 0.44 0.32 0.42 0.14
0.17 0.19 0.05 0.04 0.01 0.00 0.01 0.01 0.00 0.00 0.01 0.04 0.09 0.11 0.10 0.29 0.68 0.09 0.33 0.41 0.48 0.46 0.45 0.11 0.83 0.26 0.17 0.16 0.05 0.13 0.11 0.07 0.21 0.06 0.02 0.03 0.00 0.03 0.01 0.15 0.11 0.00 0.02 0.04 0.02 0.05 0.05 0.04 0.04 0.03 0.10 0.17 0.92 0.30 0.12 0.14 0.09 0.02 0.06 0.05 0.12 0.51 0.22 0.14 0.12 0.24 0.16 0.26 0.22 0.14 0.19 0.18 0.25 0.39 0.37 0.24 0.10 0.25 0.27 0.23 0.11 0.16 0.36 0.34 0.35 0.31 0.33
0.22 0.08 0.08 0.03 0.01 0.01 0.01 0.01 0.01 0.00 0.01 0.02 0.09 0.06 0.05 0.56 0.61 0.57 0.18 0.32 0.25 0.28 0.40 0.36 0.29 0.38 0.23 0.10 0.16 0.10 0.26 0.16 0.11 0.06 0.11 0.04 0.06 0.00 0.01 0.03 0.03 0.03 0.01 0.02 0.04 0.10 0.20 0.04 0.04 0.10 0.23 0.09 0.33 0.29 0.40 0.25 0.35 0.06 0.08 0.08 0.07 0.07 0.42 0.27 0.31 0.32 0.39 0.17 0.19 0.22 0.23 0.17 0.21 0.23 0.19 0.29 0.29 0.34 0.26 0.24 0.28 0.22 0.25 0.26 0.40 0.26 0.53
0.13 0.07 0.04 0.03 0.01 0.01 0.01 0.01 0.01 0.01 0.01 0.03 0.09 0.05 0.26 0.64 0.64 0.40 0.05 0.36 0.10 0.15 0.31 0.56 0.42 0.24 0.09 0.12 0.10 0.12 0.13 0.38 0.15 0.08 0.10 0.01 0.09 0.03 0.15 0.03 0.04 0.03 0.02 0.03 0.16 0.10 0.04 0.09 0.08 0.10 0.02 0.07 0.08 0.27 0.40 0.42 0.49 0.45 0.39 0.12 0.16 0.01 0.48 0.03 0.38 0.29 0.36 0.36 0.21 0.31 0.41 0.27 0.31 0.26 0.24 0.26 0.34 0.35 0.31 0.17 0.18 0.15 0.31 0.28 0.16 0.29 0.47
0.19 0.12 0.04 0.02 0.01 0.01 0.01 0.01 0.01 0.01 0.02 0.04 0.02 0.11 0.15 0.52 0.34 0.52 0.19 0.11 0.10 0.04 0.09 0.15 0.32 0.47 0.30 0.13 0.17 0.18 0.16 0.21 0.09 0.15 0.03 0.02 0.03 0.01 0.08 0.01 0.06 0.04 0.02 0.03 0.06 0.00 0.01 0.00 0.02 0.02 0.02 0.12 0.13 0.05 0.27 0.01 0.16 0.13 0.38 0.44 1.46 0.35 0.77 0.22 0.32 0.29 0.43 0.41 0.42 0.55 0.33 0.34 0.52 0.52 0.40 0.22 0.31 0.40 0.34 0.40 0.74 0.28 0.24 0.17 0.14 0.34 0.43
0.06 0.06 0.03 0.02 0.02 0.00 0.00 0.01 0.01 0.01 0.03 0.05 0.07 0.08 0.34 0.40 0.31 0.56 0.17 0.11 0.01 0.06 0.02 0.02 0.08 0.23 0.37 0.32 0.24 0.20 0.26 0.04 0.04 0.00 0.00 0.01 0.01 0.03 0.01 0.07 0.18 0.08 0.08 0.06 0.01 0.00 0.00 0.00 0.01 0.01 0.01 0.01 0.05 0.04 0.02 0.01 0.04 0.11 0.14 0.49 0.29 0.35 0.33 0.21 0.39 0.24 0.23 0.34 0.38 0.50 0.74 0.69 0.38 0.39 0.41 0.30 0.25 0.23 0.31 0.27 0.68 0.52 0.59 0.24 0.15 0.22 0.24
0.07 0.05 0.04 0.03 0.02 0.00 0.00 0.01 0.01 0.01 0.03 0.06 0.07 0.10 0.43 0.46 0.59 0.44 0.24 0.10 0.01 0.04 0.05 0.03 0.04 0.05 0.06 0.09 0.22 0.16 0.50 0.12 0.10 0.06 0.15 0.00 0.02 0.00 0.01 0.02 0.04 0.05 0.03 0.01 0.00 0.00 0.02 0.04 0.02 0.01 0.02 0.08 0.03 0.04 0.14 0.04 0.04 0.02 0.04 0.18 0.14 0.25 0.26 0.22 0.45 0.60 0.42 0.31 0.31 0.39 0.39 0.77 0.31 0.26 0.20 0.25 0.28 0.23 0.24 0.15 0.16 0.70 0.53 0.56 0.23 0.22 0.17
0.04 0.04 0.04 0.03 0.01 0.01 0.00 0.01 0.01 0.02 0.02 0.02 0.05 0.10 0.46 0.60 0.37 0.36 0.19 0.06 0.03 0.01 0.04 0.08 0.06 0.02 0.01 0.02 0.04 0.05 0.14 0.11 0.16 0.01 0.04 0.02 0.01 0.00 0.00 0.00 0.00 0.01 0.01 0.00 0.00 0.00 0.01 0.01 0.02 0.02 0.01 0.04 0.04 0.02 0.02 0.02 0.07 0.03 0.03 0.05 0.21 0.16 0.17 0.17 0.29 0.38 0.42 0.59 0.54 0.62 0.60 0.48 0.46 0.20 0.16 0.13 0.17 0.19 0.20 0.34 0.20 0.42 0.48 0.39 0.54 0.46 0.46
0.04 0.05 0.04 0.02 0.01 0.01 0.01 0.01 0.02 0.02 0.02 0.05 0.06 0.12 0.55 0.28 0.36 0.28 0.16 0.10 0.05 0.05 0.04 0.04 0.19 0.00 0.01 0.00 0.01 0.31 0.05 0.02 0.04 0.02 0.02 0.02 0.04 0.00 0.00 0.00 0.00 0.01 0.00 0.00 0.00 0.00 0.02 0.05 0.03 0.04 0.04 0.02 0.02 0.01 0.02 0.02 0.03 0.06 0.11 0.03 0.12 0.09 0.10 0.12 0.24 0.25 0.38 0.62 1.10 0.90 0.63 0.38 0.40 0.40 0.25 0.14 0.06 0.18 0.18 0.17 0.26 0.61 0.52 0.35 0.29 0.42 0.48
0.03 0.03 0.01 0.01 0.01 0.01 0.01 0.01 0.01 0.02 0.03 0.08 0.08 0.21 0.56 0.25 0.38 0.20 0.13 0.07 0.02 0.42 0.06 0.05 0.15 0.02 0.01 0.01 0.01 0.09 0.04 0.00 0.00 0.00 0.03 0.01 0.03 0.01 0.00 0.00 0.00 0.00 0.00 0.00 0.00 0.01 0.02 0.02 0.09 0.11 0.13 0.08 0.28 0.14 0.14 0.09 0.13 0.09 0.09 0.06 0.06 0.19 0.12 0.14 0.21 0.21 0.42 0.27 0.69 0.52 0.52 0.43 0.57 0.38 0.28 0.22 0.30 0.29 0.14 0.46 0.33 0.35 0.43 0.28 0.25 0.46 0.31
0.03 0.01 0.02 0.02 0.01 0.01 0.01 0.01 0.01 0.02 0.03 0.01 0.04 0.25 0.48 0.27 0.28 0.21 0.11 0.15 0.02 0.04 0.00 0.03 0.04 0.00 0.00 0.00 0.01 0.04 0.03 0.00 0.00 0.02 0.01 0.00 0.00 0.00 0.00 0.00 0.00 0.00 0.00 0.02 0.00 0.04 0.11 0.13 0.11 0.16 0.10 0.13 0.14 0.29 0.19 0.15 0.23 0.44 0.32 0.35 0.16 0.37 0.26 0.76 0.28 0.32 0.12 0.28 0.39 0.42 0.36 0.74 0.54 0.50 0.67 0.20 0.31 0.22 0.20 0.12 0.34 0.28 0.60 0.57 0.32 0.26 0.32
0.02 0.02 0.01 0.02 0.01 0.01 0.01 0.01 0.02 0.02 0.01 0.02 0.11 0.40 0.59 0.35 0.22 0.11 0.17 0.22 0.13 0.04 0.01 0.38 0.09 0.04 0.00 0.00 0.01 0.03 0.01 0.00 0.00 0.00 0.01 0.02 0.00 0.00 0.00 0.00 0.00 0.00 0.00 0.00 0.01 0.05 0.14 0.06 0.13 0.14 0.28 0.27 0.25 0.36 0.30 0.39 0.22 0.06 0.32 0.41 0.32 0.24 0.26 0.91 0.68 0.76 0.19 0.31 0.29 0.32 0.44 0.35 0.28 0.43 0.32 0.60 0.33 0.24 0.33 0.20 0.38 0.43 0.41 0.48 0.50 0.48 0.43
0.02 0.02 0.03 0.01 0.02 0.02 0.01 0.02 0.02 0.02 0.01 0.04 0.29 0.56 0.40 0.34 0.19 0.17 0.12 0.19 0.32 0.28 0.61 0.43 0.03 0.04 0.01 0.00 0.02 0.01 0.01 0.01 0.00 0.00 0.00 0.02 0.01 0.00 0.00 0.00 0.00 0.00 0.00 0.00 0.02 0.01 0.04 0.01 0.15 0.12 0.43 0.22 0.20 0.11 0.25 0.25 0.23 0.43 0.22 0.22 0.44 1.01 0.66 0.71 0.33 0.36 0.24 0.52 0.44 0.52 0.29 0.36 0.30 0.39 0.65 0.57 0.76 0.61 0.59 0.49 0.56 0.52 0.39 0.30 0.28 0.41 0.51
0.02 0.02 0.02 0.02 0.02 0.01 0.02 0.03 0.02 0.01 0.02 0.04 0.45 0.45 0.29 0.27 0.08 0.08 0.07 0.08 0.10 0.11 0.00 0.01 0.01 0.00 0.01 0.00 0.00 0.00 0.00 0.01 0.01 0.02 0.02 0.00 0.00 0.00 0.00 0.01 0.00 0.00 0.00 0.01 0.02 0.04 0.03 0.07 0.21 0.23 0.34 0.39 0.21 0.24 0.20 0.29 0.09 0.14 0.44 0.40 0.36 0.25 0.66 0.34 0.96 0.49 0.84 0.52 0.76 0.43 0.31 0.14 0.09 0.13 0.32 0.38 1.18 0.96 0.72 0.72 0.88 0.33 0.38 0.31 0.24 0.35 0.49
0.02 0.02 0.02 0.03 0.02 0.02 0.02 0.03 0.02 0.02 0.03 0.13 0.65 0.23 0.23 0.10 0.06 0.05 0.11 0.07 0.14 0.17 0.03 0.00 0.00 0.00 0.00 0.01 0.01 0.00 0.00 0.00 0.01 0.02 0.00 0.01 0.02 0.02 0.05 0.01 0.00 0.08 0.01 0.02 0.07 0.05 0.04 0.07 0.11 0.18 0.17 0.33 0.07 0.23 0.19 0.10 0.34 0.45 0.20 0.42 0.25 0.34 0.08 0.36 0.23 0.77 0.65 0.70 0.75 0.62 0.75 0.61 0.32 0.52 0.23 0.72 0.49 1.19 1.27 0.58 0.30 0.46 0.25 0.44 0.28 0.33 0.25
0.02 0.02 0.03 0.02 0.02 0.02 0.02 0.02 0.02 0.03 0.04 0.34 0.50 0.30 0.10 0.02 0.02 0.05 0.13 0.12 0.08 0.03 0.00 0.01 0.00 0.00 0.00 0.00 0.00 0.00 0.01 0.01 0.02 0.04 0.02 0.01 0.04 0.00 0.01 0.03 0.01 0.00 0.02 0.09 0.03 0.12 0.08 0.10 0.28 0.20 0.13 0.14 0.26 0.28 0.18 0.22 0.07 0.16 0.12 0.55 0.23 0.51 0.17 0.24 0.42 0.23 0.36 0.53 0.43 0.55 0.57 2.02 0.07 0.36 0.09 0.51 0.63 1.09 0.76 0.51 0.46 0.35 0.23 0.22 0.26 0.20 0.25
0.02 0.03 0.03 0.02 0.02 0.03 0.03 0.02 0.02 0.03 0.20 0.35 0.23 0.14 0.02 0.04 0.08 0.08 0.14 0.14 0.16 0.05 0.00 0.00 0.00 0.00 0.00 0.00 0.01 0.03 0.05 0.01 0.02 0.03 0.01 0.03 0.06 0.03 0.06 0.02 0.07 0.09 0.06 0.06 0.22 0.10 0.07 0.13 0.29 0.21 0.38 0.32 0.26 0.23 0.37 0.28 0.08 0.22 0.08 0.15 0.10 0.44 0.23 0.20 0.26 0.22 0.49 0.61 0.42 0.61 0.70 0.65 0.37 0.16 0.43 0.50 0.36 0.47 0.48 0.38 0.43 0.37 0.23 0.20 0.39 0.73 0.54
0.02 0.03 0.03 0.03 0.03 0.03 0.02 0.02 0.02 0.09 0.39 0.22 0.04 0.08 0.07 0.07 0.05 0.09 0.09 0.11 0.10 0.04 0.00 0.00 0.00 0.00 0.00 0.00 0.00 0.00 0.00 0.00 0.00 0.01 0.04 0.03 0.01 0.02 0.01 0.02 0.02 0.04 0.05 0.03 0.10 0.04 0.17 0.24 0.26 0.14 0.16 0.15 0.13 0.21 0.21 0.23 0.29 0.16 0.07 0.06 0.23 0.49 0.11 0.26 0.36 0.36 0.58 0.41 0.52 0.53 0.33 0.34 0.27 0.14 0.19 0.29 0.26 0.29 0.40 0.32 0.62 0.92 0.85 0.55 0.19 0.42 0.67
0.03 0.03 0.03 0.03 0.03 0.03 0.02 0.01 0.04 0.22 0.29 0.04 0.04 0.08 0.08 0.05 0.07 0.05 0.06 0.13 0.04 0.01 0.00 0.00 0.00 0.00 0.00 0.00 0.00 0.00 0.00 0.00 0.00 0.00 0.00 0.02 0.04 0.02 0.02 0.06 0.06 0.03 0.07 0.06 0.19 0.19 0.22 0.31 0.28 0.25 0.16 0.15 0.13 0.14 0.14 0.17 0.29 0.07 0.13 0.05 0.09 0.11 0.03 0.11 0.24 0.21 0.19 0.24 0.35 0.35 0.30 0.26 0.30 0.14 0.13 0.22 0.32 0.41 0.51 0.52 0.77 0.82 0.98 0.65 0.49 0.40 0.46
0.03 0.03 0.03 0.04 0.03 0.02 0.02 0.02 0.05 0.30 0.09 0.02 0.03 0.09 0.10 0.05 0.03 0.04 0.08 0.07 0.03 0.02 0.00 0.00 0.00 0.00 0.00 0.00 0.00 0.00 0.00 0.00 0.00 0.01 0.03 0.07 0.17 0.10 0.08 0.05 0.05 0.23 0.19 0.11 0.38 0.27 0.59 0.76 0.33 0.25 0.32 0.14 0.17 0.25 0.20 0.16 0.09 0.10 0.06 0.10 0.08 0.17 0.13 0.14 0.21 0.16 0.16 0.49 0.45 0.31 0.52 0.37 0.26 0.27 0.21 0.16 0.22 0.44 0.58 0.60 0.79 0.83 0.78 0.80 0.48 0.41 0.55
0.03 0.02 0.04 0.03 0.02 0.02 0.02 0.02 0.16 0.21 0.04 0.02 0.03 0.05 0.04 0.04 0.03 0.06 0.08 0.05 0.01 0.02 0.00 0.00 0.00 0.00 0.00 0.00 0.00 0.00 0.00 0.00 0.00 0.00 0.01 0.04 0.04 0.06 0.01 0.03 0.07 0.24 0.17 0.16 0.32 0.28 0.35 0.38 0.30 0.31 0.35 0.14 0.26 0.38 0.16 0.14 0.20 0.13 0.10 0.12 0.08 0.15 0.51 0.17 0.11 0.16 0.15 0.47 0.40 0.42 0.33 0.32 0.30 0.22 0.22 0.28 0.45 0.60 0.53 0.57 0.64 0.76 1.03 0.78 0.56 0.49 0.71
0.03 0.03 0.03 0.02 0.01 0.02 0.02 0.03 0.18 0.08 0.04 0.03 0.02 0.05 0.03 0.01 0.01 0.02 0.04 0.07 0.06 0.04 0.02 0.00 0.00 0.00 0.00 0.00 0.00 0.00 0.00 0.00 0.00 0.00 0.00 0.00 0.02 0.05 0.03 0.05 0.06 0.06 0.11 0.12 0.31 0.29 0.35 0.12 0.20 0.28 0.22 0.23 0.14 0.09 0.12 0.05 0.15 0.09 0.10 0.11 0.08 0.14 0.14 0.10 0.12 0.20 0.27 0.19 0.18 0.21 0.24 0.22 0.28 0.29 0.24 0.24 0.25 0.41 0.50 0.61 0.78 0.93 0.74 0.59 0.56 0.60 0.62
0.03 0.03 0.02 0.01 0.01 0.02 0.03 0.10 0.10 0.06 0.02 0.02 0.01 0.01 0.01 0.00 0.01 0.02 0.04 0.04 0.08 0.00 0.03 0.01 0.00 0.00 0.00 0.00 0.00 0.00 0.00 0.00 0.00 0.00 0.00 0.00 0.00 0.02 0.03 0.04 0.03 0.06 0.10 0.17 0.19 0.23 0.28 0.24 0.42 0.19 0.16 0.43 0.19 0.19 0.09 0.07 0.14 0.10 0.10 0.06 0.11 0.10 0.15 0.11 0.15 0.19 0.19 0.23 0.28 0.18 0.14 0.30 0.50 0.36 0.34 0.25 0.28 0.30 0.36 0.38 0.48 0.62 0.87 0.60 0.64 0.84 0.63
0.03 0.03 0.02 0.02 0.01 0.02 0.04 0.11 0.07 0.04 0.01 0.01 0.00 0.01 0.01 0.01 0.00 0.02 0.03 0.05 0.05 0.02 0.00 0.00 0.00 0.00 0.00 0.00 0.00 0.00 0.00 0.00 0.00 0.00 0.00 0.00 0.00 0.02 0.01 0.03 0.04 0.06 0.10 0.11 0.22 0.18 0.17 0.27 0.20 0.13 0.13 0.22 0.30 0.26 0.14 0.14 0.16 0.12 0.10 0.08 0.08 0.16 0.14 0.21 0.19 0.17 0.24 0.11 0.11 0.17 0.13 0.11 0.18 0.29 0.26 0.26 0.33 0.25 0.26 0.28 0.37 0.57 0.71 0.61 0.57 0.52 0.56
0.02 0.01 0.01 0.02 0.01 0.02 0.09 0.07 0.05 0.02 0.00 0.01 0.00 0.01 0.01 0.00 0.00 0.00 0.01 0.01 0.05 0.14 0.08 0.05 0.03 0.02 0.04 0.00 0.00 0.00 0.00 0.00 0.00 0.00 0.00 0.00 0.01 0.02 0.03 0.05 0.04 0.08 0.08 0.04 0.06 0.07 0.19 0.12 0.07 0.18 0.23 0.38 0.26 0.46 0.26 0.17 0.15 0.08 0.08 0.06 0.04 0.04 0.05 0.08 0.12 0.09 0.11 0.06 0.08 0.05 0.10 0.15 0.23 0.24 0.29 0.22 0.21 0.22 0.25 0.22 0.22 0.34 0.44 0.49 0.60 0.63 0.65
0.02 0.01 0.01 0.02 0.01 0.03 0.10 0.05 0.03 0.01 0.00 0.01 0.03 0.07 0.02 0.01 0.01 0.03 0.00 0.04 0.10 0.20 0.07 0.05 0.03 0.00 0.00 0.00 0.00 0.00 0.00 0.00 0.00 0.00 0.01 0.02 0.01 0.02 0.04 0.07 0.07 0.05 0.22 0.25 0.17 0.12 0.14 0.12 0.10 0.06 0.06 0.28 0.48 0.35 0.14 0.15 0.11 0.06 0.03 0.04 0.02 0.06 0.09 0.08 0.15 0.18 0.19 0.12 0.12 0.17 0.17 0.13 0.16 0.24 0.18 0.19 0.20 0.18 0.15 0.16 0.15 0.20 0.30 0.34 0.48 0.60 0.53
0.01 0.01 0.01 0.01 0.01 0.05 0.03 0.06 0.02 0.00 0.00 0.04 0.06 0.01 0.00 0.03 0.10 0.01 0.01 0.03 0.09 0.14 0.06 0.04 0.05 0.01 0.00 0.00 0.00 0.00 0.00 0.00 0.00 0.01 0.02 0.02 0.02 0.02 0.01 0.02 0.06 0.13 0.23 0.21 0.16 0.12 0.07 0.16 0.04 0.06 0.05 0.08 0.47 0.74 0.21 0.23 0.11 0.04 0.06 0.08 0.09 0.12 0.15 0.17 0.40 0.20 0.15 0.13 0.14 0.14 0.11 0.12 0.18 0.14 0.24 0.32 0.39 0.25 0.22 0.31 0.37 0.23 0.20 0.27 0.32 0.52 0.78
0.01 0.01 0.01 0.00 0.01 0.02 0.01 0.01 0.01 0.00 0.01 0.02 0.03 0.01 0.04 0.02 0.02 0.05 0.01 0.03 0.09 0.12 0.18 0.15 0.03 0.00 0.00 0.00 0.00 0.00 0.00 0.00 0.00 0.04 0.01 0.02 0.03 0.01 0.03 0.01 0.02 0.08 0.05 0.07 0.13 0.16 0.07 0.06 0.03 0.09 0.11 0.11 0.47 0.76 0.15 0.20 0.13 0.06 0.06 0.07 0.07 0.07 0.09 0.05 0.10 0.26 0.53 0.21 0.11 0.10 0.13 0.19 0.15 0.18 0.36 0.29 0.27 0.15 0.12 0.11 0.13 0.31 0.17 0.17 0.23 0.43 0.52
0.01 0.00 0.00 0.00 0.00 0.00 0.00 0.01 0.00 0.00 0.00 0.00 0.00 0.00 0.00 0.00 0.01 0.07 0.05 0.12 0.23 0.27 0.13 0.13 0.04 0.01 0.00 0.00 0.00 0.01 0.00 0.04 0.05 0.02 0.02 0.01 0.04 0.04 0.04 0.03 0.05 0.05 0.06 0.09 0.14 0.07 0.05 0.05 0.02 0.05 0.04 0.27 0.27 0.32 0.15 0.16 0.07 0.07 0.04 0.03 0.05 0.06 0.11 0.07 0.24 0.29 0.13 0.11 0.14 0.20 0.17 0.21 0.31 0.28 0.28 0.19 0.16 0.20 0.18 0.16 0.17 0.12 0.09 0.12 0.15 0.26 0.48
0.00 0.00 0.00 0.00 0.00 0.00 0.01 0.01 0.00 0.00 0.00 0.00 0.04 0.02 0.04 0.01 0.06 0.14 0.21 0.14 0.10 0.05 0.12 0.04 0.01 0.01 0.00 0.01 0.00 0.08 0.00 0.03 0.02 0.01 0.02 0.01 0.01 0.02 0.04 0.04 0.05 0.03 0.07 0.04 0.15 0.11 0.09 0.07 0.06 0.05 0.06 0.09 0.12 0.17 0.14 0.09 0.05 0.04 0.03 0.07 0.06 0.08 0.09 0.09 0.10 0.21 0.20 0.26 0.21 0.20 0.19 0.21 0.26 0.24 0.16 0.14 0.16 0.10 0.11 0.04 0.04 0.06 0.12 0.20 0.18 0.25 0.90
0.00 0.00 0.00 0.00 0.00 0.00 0.01 0.01 0.00 0.01 0.01 0.01 0.02 0.06 0.02 0.01 0.02 0.05 0.05 0.07 0.09 0.06 0.03 0.01 0.05 0.02 0.01 0.01 0.00 0.07 0.01 0.03 0.02 0.04 0.06 0.03 0.00 0.00 0.01 0.01 0.05 0.06 0.12 0.07 0.08 0.06 0.06 0.06 0.05 0.17 0.19 0.05 0.17 0.16 0.07 0.06 0.04 0.04 0.09 0.10 0.11 0.17 0.06 0.11 0.15 0.21 0.18 0.19 0.20 0.17 0.12 0.24 0.23 0.29 0.25 0.23 0.32 0.11 0.09 0.04 0.05 0.06 0.14 0.39 0.21 0.29 0.37
0.00 0.00 0.00 0.00 0.00 0.00 0.01 0.01 0.01 0.00 0.02 0.07 0.04 0.00 0.00 0.00 0.00 0.02 0.03 0.04 0.20 0.15 0.02 0.02 0.02 0.04 0.05 0.06 0.10 0.02 0.01 0.07 0.01 0.01 0.01 0.00 0.02 0.02 0.01 0.05 0.04 0.04 0.03 0.05 0.05 0.03 0.11 0.11 0.15 0.20 0.04 0.09 0.09 0.06 0.08 0.05 0.08 0.09 0.09 0.13 0.24 0.11 0.15 0.18 0.31 0.26 0.22 0.21 0.17 0.15 0.16 0.19 0.16 0.16 0.19 0.15 0.09 0.10 0.10 0.13 0.22 0.21 0.21 0.28 0.21 0.38 0.29
0.00 0.00 0.00 0.00 0.00 0.01 0.02 0.01 0.01 0.00 0.01 0.00 0.00 0.00 0.00 0.00 0.01 0.01 0.06 0.24 0.10 0.44 0.10 0.06 0.03 0.07 0.13 0.17 0.05 0.02 0.04 0.05 0.02 0.02 0.01 0.01 0.02 0.01 0.01 0.04 0.02 0.02 0.01 0.03 0.02 0.02 0.11 0.11 0.14 0.17 0.07 0.10 0.03 0.03 0.10 0.09 0.19 0.06 0.06 0.07 0.06 0.04 0.11 0.17 0.16 0.15 0.17 0.20 0.23 0.22 0.24 0.19 0.34 0.27 0.16 0.19 0.22 0.29 0.12 0.26 0.19 0.06 0.09 0.12 0.24 0.49 0.83
0.00 0.00 0.00 0.00 0.02 0.00 0.01 0.01 0.01 0.00 0.00 0.00 0.00 0.03 0.06 0.01 0.16 0.08 0.09 0.03 0.11 0.16 0.15 0.17 0.20 0.18 0.09 0.10 0.15 0.04 0.03 0.08 0.03 0.03 0.01 0.01 0.02 0.01 0.01 0.01 0.02 0.06 0.08 0.03 0.06 0.03 0.10 0.06 0.11 0.06 0.02 0.03 0.06 0.08 0.38 0.16 0.12 0.11 0.15 0.14 0.10 0.23 0.42 0.46 0.34 0.30 0.39 0.30 0.27 0.32 0.25 0.19 0.23 0.21 0.09 0.06 0.06 0.03 0.07 0.10 0.09 0.22 0.14 1.05 1.00 0.54 0.37
0.00 0.00 0.00 0.01 0.01 0.01 0.00 0.00 0.00 0.00 0.00 0.00 0.00 0.02 0.01 0.06 0.02 0.05 0.06 0.06 0.02 0.07 0.21 0.48 0.17 0.07 0.11 0.05 0.04 0.03 0.01 0.08 0.09 0.01 0.06 0.09 0.06 0.02 0.01 0.10 0.05 0.11 0.19 0.04 0.12 0.10 0.16 0.18 0.15 0.11 0.11 0.09 0.21 0.26 0.26 0.29 0.26 0.37 0.26 0.45 0.59 0.54 0.42 0.39 0.38 0.39 0.49 0.40 0.31 0.19 0.18 0.20 0.10 0.04 0.03 0.06 0.05 0.05 0.05 0.05 0.16 0.18 1.25 0.55 0.53 0.38 0.25
0.00 0.03 0.01 0.01 0.00 0.01 0.00 0.00 0.00 0.00 0.00 0.00 0.02 0.00 0.00 0.02 0.00 0.00 0.00 0.00 0.02 0.14 0.11 0.08 0.09 0.03 0.02 0.06 0.09 0.01 0.05 0.07 0.04 0.03 0.08 0.06 0.02 0.07 0.09 0.02 0.10 0.07 0.13 0.05 0.11 0.16 0.11 0.16 0.12 0.09 0.16 0.40 0.26 0.43 0.13 0.20 0.20 0.27 0.40 0.64 0.77 0.44 0.45 0.45 0.38 0.29 0.24 0.14 0.09 0.09 0.08 0.04 0.04 0.08 0.06 0.06 0.06 0.09 0.18 0.21 0.28 0.88 0.22 0.21 0.26 0.19 0.14
0.00 0.03 0.01 0.00 0.00 0.00 0.00 0.00 0.00 0.00 0.00 0.00 0.00 0.02 0.00 0.00 0.01 0.00 0.00 0.00 0.01 0.03 0.02 0.04 0.02 0.03 0.05 0.03 0.03 0.06 0.09 0.00 0.02 0.02 0.04 0.04 0.11 0.06 0.12 0.18 0.10 0.10 0.07 0.09 0.12 0.13 0.20 0.10 0.15 0.12 0.32 0.33 0.19 0.23 0.22 0.34 0.31 0.77 0.45 0.60 0.54 0.34 0.37 0.41 0.20 0.16 0.11 0.05 0.05 0.05 0.04 0.03 0.06 0.06 0.06 0.08 0.10 0.23 0.28 0.37 0.45 0.25 0.21 0.08 0.08 0.16 0.21
0.04 0.04 0.02 0.02 0.02 0.01 0.00 0.00 0.00 0.00 0.00 0.00 0.00 0.00 0.00 0.00 0.00 0.00 0.02 0.00 0.00 0.00 0.03 0.01 0.00 0.03 0.05 0.02 0.05 0.05 0.01 0.00 0.01 0.03 0.09 0.13 0.10 0.12 0.16 0.06 0.11 0.09 0.07 0.05 0.11 0.07 0.09 0.18 0.16 0.20 0.52 0.53 0.41 0.29 0.38 0.34 0.24 0.23 0.25 0.49 0.52 0.28 0.24 0.31 0.32 0.14 0.10 0.06 0.04 0.07 0.07 0.08 0.11 0.12 0.13 0.16 0.35 0.44 0.70 0.83 0.65 0.24 0.21 0.14 0.12 0.23 0.40
0.00 0.00 0.03 0.05 0.01 0.00 0.00 0.00 0.00 0.00 0.00 0.00 0.00 0.00 0.00 0.00 0.00 0.00 0.00 0.00 0.01 0.02 0.04 0.01 0.02 0.01 0.02 0.00 0.02 0.03 0.05 0.03 0.06 0.04 0.10 0.14 0.09 0.15 0.07 0.10 0.07 0.08 0.11 0.09 0.08 0.12 0.11 0.21 0.21 0.34 0.36 0.32 0.59 0.61 0.35 0.24 0.21 0.17 0.43 0.67 0.66 0.29 0.27 0.30 0.23 0.13 0.15 0.13 0.16 0.18 0.17 0.15 0.23 0.35 0.38 0.43 0.59 0.70 0.80 0.44 0.24 0.14 0.11 0.12 0.19 0.40 0.72
0.00 0.00 0.00 0.00 0.00 0.00 0.00 0.00 0.00 0.00 0.00 0.01 0.00 0.00 0.00 0.00 0.00 0.00 0.00 0.05 0.03 0.05 0.06 0.03 0.04 0.04 0.03 0.06 0.09 0.02 0.01 0.07 0.17 0.20 0.04 0.02 0.07 0.07 0.10 0.05 0.11 0.18 0.05 0.06 0.09 0.11 0.22 0.24 0.32 0.31 0.23 0.29 0.40 0.35 0.25 0.26 0.26 0.34 0.58 0.49 0.36 0.27 0.32 0.43 0.32 0.23 0.18 0.18 0.24 0.25 0.24 0.31 0.47 0.75 0.91 0.95 0.78 0.70 0.65 0.35 0.19 0.15 0.11 0.14 0.22 0.36 0.47
0.00 0.00 0.00 0.00 0.00 0.00 0.00 0.00 0.00 0.00 0.00 0.00 0.00 0.00 0.00 0.01 0.01 0.03 0.06 0.01 0.02 0.06 0.02 0.04 0.04 0.05 0.05 0.04 0.01 0.03 0.03 0.04 0.07 0.06 0.07 0.02 0.10 0.05 0.04 0.14 0.07 0.05 0.05 0.08 0.13 0.22 0.21 0.21 0.34 0.25 0.31 0.31 0.37 0.30 0.22 0.34 0.60 0.75 0.67 0.38 0.34 0.40 0.41 0.40 0.36 0.23 0.22 0.30 0.42 0.55 0.65 0.66 0.76 0.85 0.84 0.80 0.73 0.58 0.57 0.40 0.25 0.18 0.14 0.17 0.20 0.27 0.28
0.00 0.00 0.00 0.00 0.00 0.00 0.00 0.00 0.00 0.00 0.00 0.00 0.00 0.00 0.00 0.03 0.05 0.05 0.03 0.01 0.04 0.03 0.05 0.05 0.02 0.03 0.03 0.04 0.10 0.07 0.04 0.06 0.04 0.03 0.15 0.11 0.05 0.11 0.07 0.11 0.09 0.09 0.11 0.13 0.20 0.21 0.24 0.15 0.33 0.40 0.35 0.37 0.43 0.53 0.60 0.70 0.65 0.69 0.63 0.41 0.57 0.35 0.28 0.26 0.27 0.25 0.37 0.48 0.54 0.52 0.61 0.61 0.57 0.60 0.61 0.59 0.59 0.56 0.55 0.42 0.37 0.33 0.30 0.37 0.37 0.34 0.28
0.00 0.01 0.00 0.00 0.00 0.00 0.00 0.00 0.00 0.00 0.00 0.00 0.00 0.01 0.02 0.03 0.02 0.01 0.03 0.02 0.04 0.03 0.02 0.01 0.03 0.02 0.07 0.03 0.04 0.05 0.10 0.06 0.06 0.04 0.03 0.22 0.16 0.06 0.03 0.06 0.15 0.12 0.16 0.16 0.16 0.19 0.20 0.16 0.19 0.39 0.43 0.65 0.60 0.47 0.62 0.71 0.59 0.46 0.31 0.24 0.22 0.21 0.23 0.23 0.22 0.26 0.37 0.36 0.35 0.40 0.46 0.49 0.46 0.43 0.42 0.48 0.55 0.60 0.52 0.51 0.50 0.43 0.40 0.42 0.39 0.37 0.31
0.01 0.00 0.00 0.00 0.00 0.00 0.00 0.00 0.00 0.00 0.00 0.00 0.01 0.01 0.01 0.01 0.02 0.03 0.03 0.01 0.02 0.02 0.02 0.02 0.03 0.03 0.03 0.04 0.02 0.09 0.03 0.04 0.07 0.09 0.16 0.08 0.03 0.06 0.15 0.17 0.17 0.19 0.22 0.25 0.27 0.31 0.35 0.29 0.42 0.65 0.69 0.72 0.74 0.53 0.71 0.60 0.42 0.35 0.28 0.23 0.21 0.25 0.22 0.25 0.31 0.38 0.40 0.35 0.32 0.33 0.32 0.36 0.38 0.34 0.32 0.37 0.40 0.44 0.40 0.39 0.35 0.32 0.30 0.30 0.29 0.27 0.24
0.00 0.00 0.00 0.01 0.00 0.00 0.00 0.00 0.00 0.00 0.00 0.00 0.00 0.01 0.01 0.02 0.02 0.04 0.03 0.02 0.01 0.03 0.02 0.02 0.03 0.03 0.03 0.03 0.04 0.06 0.04 0.12 0.10 0.08 0.02 0.02 0.07 0.14 0.17 0.16 0.14 0.12 0.22 0.31 0.25 0.39 0.34 0.39 0.62 0.53 0.79 0.72 0.70 0.70 0.74 0.45 0.32 0.29 0.39 0.17 0.17 0.18 0.20 0.23 0.25 0.34 0.39 0.33 0.34 0.33 0.38 0.31 0.26 0.24 0.23 0.24 0.33 0.34 0.29 0.23 0.20 0.20 0.19 0.19 0.20 0.19 0.18
0.01 0.02 0.05 0.03 0.01 0.00 0.00 0.00 0.00 0.00 0.00 0.00 0.00 0.02 0.01 0.02 0.04 0.02 0.01 0.02 0.01 0.02 0.00 0.00 0.01 0.04 0.06 0.04 0.05 0.05 0.05 0.05 0.04 0.02 0.02 0.05 0.13 0.17 0.17 0.18 0.19 0.26 0.26 0.17 0.20 0.25 0.36 0.44 0.55 0.59 0.63 0.55 0.55 0.73 0.55 0.34 0.24 0.25 0.20 0.24 0.12 0.20 0.20 0.22 0.27 0.36 0.35 0.35 0.30 0.30 0.26 0.26 0.26 0.18 0.15 0.14 0.13 0.13 0.14 0.16 0.18 0.17 0.17 0.15 0.14 0.12 0.09
0.03 0.02 0.01 0.00 0.01 0.05 0.00 0.01 0.01 0.00 0.00 0.01 0.01 0.02 0.02 0.05 0.03 0.02 0.01 0.03 0.02 0.02 0.02 0.04 0.05 0.07 0.11 0.06 0.05 0.07 0.09 0.02 0.02 0.03 0.04 0.09 0.13 0.15 0.23 0.16 0.21 0.31 0.23 0.14 0.12 0.15 0.46 0.60 0.78 0.66 0.60 0.77 0.65 0.65 0.45 0.33 0.23 0.25 0.20 0.10 0.11 0.15 0.19 0.29 0.35 0.44 0.44 0.35 0.33 0.22 0.20 0.20 0.13 0.07 0.05 0.04 0.06 0.06 0.05 0.04 0.04 0.06 0.08 0.10 0.12 0.13 0.11
0.03 0.03 0.02 0.01 0.00 0.00 0.00 0.01 0.01 0.01 0.02 0.02 0.02 0.04 0.01 0.04 0.01 0.02 0.11 0.06 0.06 0.08 0.03 0.02 0.02 0.09 0.07 0.13 0.07 0.06 0.03 0.06 0.08 0.03 0.03 0.09 0.17 0.16 0.21 0.32 0.29 0.28 0.20 0.09 0.05 0.16 0.58 0.80 0.73 1.09 0.69 0.61 0.51 0.41 0.27 0.20 0.26 0.09 0.07 0.10 0.11 0.12 0.18 0.26 0.31 0.42 0.40 0.34 0.32 0.29 0.29 0.23 0.17 0.16 0.18 0.20 0.11 0.08 0.13 0.15 0.09 0.03 0.02 0.03 0.02 0.03 0.05